THORAD DELTA 1 DEB, 42614

Orbit data source: Space-Track

THORAD DELTA 1 DEB, 42614 is space debris in SSO originally from a launch on Fri, 15 Nov 1974 UTC launched from the Air Force Western Test Range (AFWTR). Debris objects in space refer to the collection of defunct objects orbiting the Earth. Examples of debris include non-operational satellites, rocket bodies, and fragments generated from explosions, collisions, or faulty payload assembly.

Loading next visibility...
Identifier
42614, 1974-089GF
Orbit
SSO
Country
Flag of USUS
Related business
Manufacturer
Unknown
Mission
Spacecraft
Bus & Motor
Unknown
Mass
Unknown
Launch date (UTC)
1974-11-15 (51 years ago)
Launch vehicle
Unknown
Launch site
Air Force Western Test Range (AFWTR)
Object type
Payload
Rocket body
Debris
Shape & HBR
Unknown
Radar Cross Section
Small (<0.1 m²)

Expand to show TLE details & history
Last TLE update: 4 days ago

TLE from 4 days ago
0 THORAD DELTA 1 DEB
1 42614U 74089GF  25256.66365860  .00000298  00000-0  19886-2 0  9998
2 42614 101.8637  48.4274 0034259 343.9243  40.4160 12.59641397501160
Epoch: 2025-09-13T15:55Z
TLE epoch observation values (Epoch: 2025-09-13T15:55:40.103Z)
Latitude
24.06137°
Longitude
171.26099°
Altitude
1,406.724 km
Speed
7.168 km/s
True Right ascension
02h 52m 17s
True Declination
23° 56' 39"
Sunlit
Object was in daylight at epoch
Visualization orbit readout
Latitude
Unknown
Longitude
Unknown
Altitude
Unknown
Speed
Unknown
Apparent Right ascension
Unknown
Apparent Declination
Unknown
Sunlit
N/A
Visualization observer readout
Local Sidereal Time
12:33:00
Azimuth
Unknown
Elevation
Unknown
Doppler factor
Unknown
Orbital elements
Apogee altitude
1,448.688 km
Perigee altitude
1,395.243 km
Semi-major axis
7,800.103 km
Eccentricity
0.00343
Inclination
101.8637°
RAAN
48.4274°
Arg. of periapsis
343.9243°
True anomaly
40.67135°
Mean anomaly
40.416°
Eccentric anomaly
40.54359°
Mean motion
3.1506 °/min
Orbital period
114.26 mins
BSTAR
0.0019886
Loading maneuver chart data...
Computing Atmospheric mass density...

Documentation

Showing up to 5 results
|